Regional Weather Roundup
Issued by NWS

Home | Current Version | Previous Version | Text Only | Print | Product List | Glossary Off
Versions: 1 2 3 4 5 6 7 8 9 10 11 12 13 14 15 16 17 18 19 20 21 22 23 24 25 26 27 28 29 30 31 32 33 34 35 36 37 38 39 40 41 42 43 44 45 46 47 48 49 50

000
ASUS45 KABQ 251110
RWRNM
NEW MEXICO REGIONAL WEATHER ROUNDUP
NATIONAL WEATHER SERVICE ALBUQUERQUE NM
500 AM MDT MON MAY 25 2015

NOTE: "FAIR" MEANS FEW OR NO CLOUDS BELOW 12,000 FEET AGL WITH NO
       SIGNIFICANT WEATHER OR OBSTRUCTIONS TO VISION.

      THIS PRODUCT IS RELEASED AS TWO VERSIONS.  ONE VERSION NEAR
      THE TOP OF THE HOUR CONTAINING PRELIMINARY DATA FROM ALBUQUERQUE
      AND OTHER STATIONS.  A FINAL VERSION WITH ADDITIONAL DATA IS
      ISSUED ABOUT 10 MINUTES AFTER THE HOUR.

NMZ501-503-504-510>518-251200-
NORTHWEST PLATEAU/NORTHCENTRAL MOUNTAINS

CITY           SKY/WX    TMP DP  RH WIND       PRES   REMARKS
FARMINGTON     PTCLDY    46  42  86 E6        29.97S
LOS ALAMOS     PTCLDY    45  36  70 NW3       30.03S
SANTA FE       CLEAR     42  38  85 CALM      29.99S
TAOS           MOCLDY    39  30  70 NE5       30.03S
ANGEL FIRE     PTSUNNY   38  35  90 CALM      30.04F

$$
NMZ402-403-502-505>509-251200-
WESTCENTRAL MOUNTAINS/SOUTHWEST MOUNTAINS

CITY           SKY/WX    TMP DP  RH WIND       PRES   REMARKS
GALLUP         CLEAR     41  36  82 S7        30.04R
GRANTS         CLEAR     35  33  92 CALM      30.06R
SILVER CITY    CLEAR     46  30  53 NW12      30.04S

$$
NMZ407-409-411-412-251200-
SOUTHERN DESERTS

CITY           SKY/WX    TMP DP  RH WIND       PRES   REMARKS
LORDSBURG      FAIR      50  28  43 W3        29.99S
DEMING         CLEAR     53  32  44 W9        29.99R
LAS CRUCES     CLEAR     54  31  42 W8        29.99R
HOLLOMAN AFB   CLEAR     52  37  56 NE3       29.93R
ALAMOGORDO     CLEAR     54  32  43 NE3       29.94S
T OR C         CLEAR     53  35  50 NW8       29.98R

$$
NMZ519>523-251200-
CENTRAL VALLEYS/CENTRAL HIGHLANDS

CITY           SKY/WX    TMP DP  RH WIND       PRES   REMARKS
ALBUQUERQUE    PTCLDY    49  46  90 SE3       29.99S
DOUBLE EAGLE   CLEAR     44  42  91 W3        30.00F
MORIARTY ARPT  FAIR      42  39  86 SE5       30.01R
CLINES CORNERS PTCLDY    42  38  85 NW14      29.97F
BELEN          FAIR      47  42  83 CALM      29.99S
SOCORRO        FAIR      50  38  61 NE5       29.98R

$$
NMZ524>526-539-540-251200-
SOUTHCENTRAL MOUNTAINS

CITY           SKY/WX    TMP DP  RH WIND       PRES   REMARKS
RUIDOSO        CLEAR     46  32  57 W3        30.06R

$$
NMZ527>531-251200-
NORTHEAST HIGHLANDS/NORTHEAST PLAINS

CITY           SKY/WX    TMP DP  RH WIND       PRES   REMARKS
LAS VEGAS      PTCLDY    40  34  79 S7        29.95F
RATON          MOCLDY    39  35  86 N7        29.91F WCI  34
CLAYTON        CLEAR     44  37  76 W6        29.86F

$$
NMZ532>537-251200-
EASTCENTRAL PLAINS

CITY           SKY/WX    TMP DP  RH WIND       PRES   REMARKS
TUCUMCARI      CLEAR     53  44  71 SW3       29.86S
CANNON AFB     PTCLDY    55  43  64 W8        29.88S
CLOVIS AIRPORT PTCLDY    50  43  76 S12       29.91R

$$
NMZ028-029-538-251200-
SOUTHEAST PLAINS

CITY           SKY/WX    TMP DP  RH WIND       PRES   REMARKS
ROSWELL        CLOUDY    61  38  42 CALM      29.91R
ARTESIA        CLOUDY    63  36  36 NW9       29.90F
CARLSBAD       CLOUDY    70  31  23 W12       29.87R
HOBBS          CLOUDY    66  45  45 SE7G16    29.89F


$$



USA.gov is the U.S. government's official web portal to all federal, state and local government web resources and services.